When you browse on this site, cookies collect data to enhance your experience and personalize the content and advertising you see.
Visit our Privacy Policy to learn more. By continuing to use the site, you agree to this use of cookies and data.
  • In Hungary
  • List of Countries
  • For 7 days
  • Water Temperature
  • Satellite Maps
  • Weather Map
  • News
  • Weather Widgets
  • user-avatar
    Login

    Hourly Weather Benalmadena

    Today, 14 December, Friday

    Time Temperature Precipitation Wind Pressure Humidity
    00:00 +6°C° 0 mm 7 mps 742 mmHg 82%
    01:00 +6°C° 0 mm 7 mps 742 mmHg 83%
    02:00 +5°C° 0 mm 6 mps 742 mmHg 85%
    03:00 +5°C° 0 mm 6 mps 742 mmHg 86%
    04:00 +5°C° 0 mm 6 mps 742 mmHg 86%
    05:00 +5°C° 0 mm 6 mps 743 mmHg 86%
    06:00 +5°C° 0 mm 6 mps 743 mmHg 86%
    07:00 +5°C° 0 mm 6 mps 744 mmHg 83%
    08:00 +7°C° 0 mm 5 mps 744 mmHg 80%
    09:00 +7°C° 0 mm 5 mps 745 mmHg 77%
    10:00 +9°C° 0 mm 5 mps 745 mmHg 69%
    11:00 +10°C° 0 mm 6 mps 745 mmHg 62%
    12:00 +11°C° 0 mm 6 mps 745 mmHg 55%
    13:00 +13°C° 0 mm 6 mps 745 mmHg 55%
    14:00 +13°C° 0 mm 6 mps 745 mmHg 55%
    15:00 +13°C° 0 mm 6 mps 745 mmHg 55%
    16:00 +11°C° 0 mm 6 mps 745 mmHg 61%
    17:00 +10°C° 0 mm 5 mps 746 mmHg 67%
    18:00 +8°C° 0 mm 5 mps 746 mmHg 72%
    19:00 +8°C° 0 mm 5 mps 746 mmHg 72%
    20:00 +8°C° 0 mm 5 mps 747 mmHg 72%
    21:00 +8°C° 0 mm 4 mps 747 mmHg 72%
    22:00 +8°C° 0 mm 4 mps 747 mmHg 72%
    23:00 +8°C° 0 mm 4 mps 747 mmHg 72%

    Tomorrow, 15 December, Saturday

    Time Temperature Precipitation Wind Pressure Humidity
    00:00 +8°C° 0 mm 4 mps 747 mmHg 72%
    01:00 +7°C° 0 mm 4 mps 747 mmHg 72%
    02:00 +7°C° 0 mm 4 mps 747 mmHg 72%
    03:00 +7°C° 0 mm 4 mps 747 mmHg 72%
    04:00 +7°C° 0 mm 4 mps 747 mmHg 72%
    05:00 +8°C° 0 mm 3 mps 747 mmHg 72%
    06:00 +8°C° 0 mm 3 mps 747 mmHg 72%
    07:00 +9°C° 0 mm 3 mps 747 mmHg 69%
    08:00 +10°C° 0 mm 3 mps 747 mmHg 65%
    09:00 +11°C° 0 mm 3 mps 748 mmHg 61%
    10:00 +13°C° 0 mm 3 mps 748 mmHg 58%
    11:00 +16°C° 0 mm 3 mps 747 mmHg 54%
    12:00 +18°C° 0 mm 3 mps 747 mmHg 50%
    13:00 +18°C° 0 mm 3 mps 747 mmHg 51%
    14:00 +19°C° 0 mm 3 mps 746 mmHg 52%
    15:00 +19°C° 0 mm 3 mps 746 mmHg 53%
    16:00 +17°C° 0 mm 3 mps 746 mmHg 58%
    17:00 +16°C° 0 mm 3 mps 746 mmHg 64%
    18:00 +13°C° 0 mm 3 mps 746 mmHg 70%
    19:00 +13°C° 0 mm 3 mps 746 mmHg 70%
    20:00 +13°C° 0 mm 3 mps 746 mmHg 69%
    21:00 +13°C° 0 mm 3 mps 746 mmHg 69%
    22:00 +13°C° 0 mm 3 mps 746 mmHg 68%
    23:00 +13°C° 0 mm 3 mps 746 mmHg 68%

    Day after tomorrow, 16 December, Sunday

    Time Temperature Precipitation Wind Pressure Humidity
    00:00 +12°C° 0 mm 3 mps 745 mmHg 67%
    01:00 +12°C° 0 mm 3 mps 745 mmHg 67%
    02:00 +12°C° 0 mm 3 mps 745 mmHg 67%
    03:00 +12°C° 0 mm 3 mps 745 mmHg 66%
    04:00 +12°C° 0 mm 3 mps 745 mmHg 67%
    05:00 +12°C° 0 mm 3 mps 745 mmHg 68%
    06:00 +11°C° 0 mm 3 mps 745 mmHg 69%
    07:00 +12°C° 0 mm 4 mps 745 mmHg 69%
    08:00 +13°C° 0 mm 4 mps 745 mmHg 68%
    09:00 +13°C° 0 mm 4 mps 746 mmHg 67%
    10:00 +15°C° 0 mm 4 mps 746 mmHg 63%
    11:00 +18°C° 0 mm 4 mps 746 mmHg 59%
    12:00 +19°C° 0 mm 4 mps 746 mmHg 55%
    13:00 +19°C° 0 mm 4 mps 745 mmHg 54%
    14:00 +19°C° 0 mm 5 mps 745 mmHg 54%
    15:00 +19°C° 0 mm 5 mps 745 mmHg 54%
    16:00 +17°C° 0 mm 5 mps 745 mmHg 61%
    17:00 +16°C° 0 mm 5 mps 745 mmHg 68%
    18:00 +14°C° 0 mm 4 mps 745 mmHg 76%
    19:00 +14°C° 0 mm 4 mps 745 mmHg 78%
    20:00 +14°C° 0 mm 4 mps 746 mmHg 80%
    21:00 +14°C° 0 mm 3 mps 746 mmHg 82%
    22:00 +14°C° 0 mm 3 mps 746 mmHg 84%
    23:00 +13°C° 0 mm 3 mps 746 mmHg 86%

    17 December, Monday

    Time Temperature Precipitation Wind Pressure Humidity
    00:00 +13°C° 0 mm 3 mps 746 mmHg 88%
    01:00 +13°C° 0 mm 3 mps 746 mmHg 90%
    02:00 +13°C° 0 mm 3 mps 746 mmHg 92%
    03:00 +13°C° 0 mm 4 mps 746 mmHg 94%
    04:00 +12°C° 0 mm 4 mps 746 mmHg 94%
    05:00 +12°C° 0 mm 3 mps 746 mmHg 93%
    06:00 +11°C° 0 mm 3 mps 746 mmHg 93%
    07:00 +11°C° 0 mm 3 mps 746 mmHg 90%
    08:00 +12°C° 0 mm 3 mps 746 mmHg 86%
    09:00 +12°C° 0 mm 3 mps 747 mmHg 83%
    10:00 +15°C° 0 mm 2 mps 747 mmHg 73%
    11:00 +16°C° 0 mm 2 mps 747 mmHg 62%
    12:00 +18°C° 0 mm 2 mps 747 mmHg 52%
    13:00 +18°C° 0 mm 2 mps 746 mmHg 51%
    14:00 +18°C° 0 mm 2 mps 746 mmHg 50%
    15:00 +18°C° 0 mm 2 mps 745 mmHg 49%
    16:00 +17°C° 0 mm 2 mps 746 mmHg 56%
    17:00 +15°C° 0 mm 2 mps 746 mmHg 63%
    18:00 +14°C° 0 mm 2 mps 746 mmHg 71%
    19:00 +13°C° 0 mm 2 mps 746 mmHg 74%
    20:00 +13°C° 0 mm 2 mps 747 mmHg 78%
    21:00 +13°C° 0 mm 2 mps 747 mmHg 81%
    22:00 +12°C° 0 mm 3 mps 747 mmHg 85%
    23:00 +12°C° 0 mm 3 mps 746 mmHg 88%

    18 December, Tuesday

    Time Temperature Precipitation Wind Pressure Humidity
    00:00 +12°C° 0 mm 3 mps 746 mmHg 92%
    01:00 +11°C° 0 mm 3 mps 746 mmHg 92%
    02:00 +11°C° 0 mm 3 mps 746 mmHg 93%
    03:00 +11°C° 0 mm 3 mps 746 mmHg 94%
    04:00 +11°C° 0 mm 3 mps 746 mmHg 93%
    05:00 +11°C° 0 mm 3 mps 746 mmHg 92%
    06:00 +11°C° 0 mm 3 mps 746 mmHg 91%
    07:00 +11°C° 0 mm 3 mps 746 mmHg 88%
    08:00 +12°C° 0 mm 3 mps 746 mmHg 85%
    09:00 +12°C° 0 mm 3 mps 747 mmHg 82%
    10:00 +14°C° 0 mm 3 mps 747 mmHg 76%
    11:00 +16°C° 0 mm 3 mps 746 mmHg 69%
    12:00 +18°C° 0 mm 2 mps 746 mmHg 63%
    13:00 +18°C° 0 mm 2 mps 746 mmHg 64%
    14:00 +18°C° 0 mm 2 mps 745 mmHg 64%
    15:00 +18°C° 0 mm 2 mps 745 mmHg 64%
    16:00 +16°C° 0 mm 2 mps 745 mmHg 71%
    17:00 +15°C° 0 mm 1 mps 745 mmHg 79%
    18:00 +14°C° 0 mm 1 mps 745 mmHg 86%
    19:00 +13°C° 0 mm 1 mps 746 mmHg 86%
    20:00 +13°C° 0 mm 1 mps 746 mmHg 86%
    21:00 +13°C° 0 mm 1 mps 746 mmHg 86%
    22:00 +13°C° 0 mm 1 mps 746 mmHg 84%
    23:00 +12°C° 0 mm 1 mps 746 mmHg 82%

    19 December, Wednesday

    Time Temperature Precipitation Wind Pressure Humidity
    00:00 +12°C° 0 mm 1 mps 746 mmHg 81%
    01:00 +12°C° 0 mm 1 mps 745 mmHg 78%
    02:00 +12°C° 0 mm 1 mps 745 mmHg 76%
    03:00 +12°C° 0 mm 1 mps 745 mmHg 74%
    04:00 +12°C° 0 mm 1 mps 745 mmHg 71%
    05:00 +13°C° 0 mm 2 mps 745 mmHg 69%
    06:00 +13°C° 0 mm 2 mps 745 mmHg 67%
    07:00 +13°C° 0 mm 2 mps 745 mmHg 65%
    08:00 +14°C° 0 mm 2 mps 745 mmHg 63%
    09:00 +15°C° 0 mm 2 mps 745 mmHg 62%
    10:00 +15°C° 0 mm 2 mps 745 mmHg 61%
    11:00 +16°C° 0 mm 2 mps 745 mmHg 61%
    12:00 +16°C° 0 mm 2 mps 745 mmHg 61%
    13:00 +16°C° 0.1 mm 2 mps 744 mmHg 63%
    14:00 +17°C° 0.1 mm 2 mps 744 mmHg 65%
    15:00 +17°C° 0.1 mm 2 mps 743 mmHg 67%
    16:00 +16°C° 0.1 mm 2 mps 743 mmHg 70%
    17:00 +16°C° 0.1 mm 2 mps 743 mmHg 73%
    18:00 +15°C° 0.1 mm 2 mps 743 mmHg 77%
    19:00 +14°C° 0.1 mm 3 mps 744 mmHg 78%
    20:00 +14°C° 0.1 mm 3 mps 744 mmHg 80%
    21:00 +14°C° 0.1 mm 3 mps 744 mmHg 81%
    22:00 +14°C° 0 mm 3 mps 744 mmHg 82%
    23:00 +14°C° 0 mm 3 mps 743 mmHg 83%
    Show more